Tracking 26321 objects as of 28-Nov-2022
HD Live streaming from Space Station
objects crossing your sky now

NOAA 16 DEB

Track NOAA 16 DEB now!
10-day predictions


NORAD ID: 42406
Int'l Code: 2000-055TA
Perigee: 834.7 km
Apogee: 862.0 km
Inclination: 98.7 °
Period: 101.7 minutes
Semi major axis: 7219 km
RCS: Unknown
Launch date: September 21, 2000
Source: United States (US)
Launch site: AIR FORCE WESTERN TEST RANGE (AFWTR)

Note: This is SATELLITE DEBRIS
aabbcc
Your satellite tracking list
Your tracking list is empty




NASA's NSSDC Master Catalog

Two Line Element Set (TLE):
1 42406U 00055TA  22327.00249099  .00000688  00000-0  37498-3 0  9991
2 42406  98.7118  36.8204 0018905 101.6417 258.6879 14.15309808344496
Source of the keplerian elements: AFSPC